Location: Munkebjergskolens Observatorium
(55.3864°N, 10.3987°E)
Time: 23:26:37
(UTC+01:00)

DELTA 1 DEB - Pass Details

Date: 09 December 2023
Orbit: 783 x 826 km, 98.9° (Epoch: 04 March)

Event Time Altitude Azimuth Distance (km) Brightness Sun altitude
Rises 07:13:24 0° 17° (NNE) 3,374 ? -10.2°
Reaches altitude 10° 07:15:46 10° 19° (NNE) 2,440 ? -9.9°
Maximum altitude 07:21:12 77° 106° (ESE) 857 ? -9.2°
Drops below altitude 10° 07:26:36 10° 192° (SSW) 2,428 ? -8.5°
Sets 07:28:56 0° 194° (SSW) 3,355 ? -8.2°
